logo tempoitalia

Diretta Meteo Falfurrias, Stati Uniti (USA)lunedì 31 agosto ore 01:35

Mappa
Sereno 28 °C Sereno 24 Ore: T.min 25 T.max 39
Ponente Sud-Est Km/h 7.4 Punto di rugiada: 25 °C Umidità: 83% Visibilità: 10 Km
Il sole sorge alle: 07:11 Il sole tramonta alle: 19:54
31 Agosto 2026 01:35 tempo osservato: Sereno Sereno 28 83 1014 vento: Nord SE 7.4
31 Agosto 2026 01:15 tempo osservato: Sereno Sereno 28 83 1014 vento: Nord S/SE 9.3
31 Agosto 2026 00:55 tempo osservato: Sereno Sereno 28 83 1014 vento: Nord SE 9.3
31 Agosto 2026 00:35 tempo osservato: Sereno Sereno 28 88 1014 vento: Nord S/SE 14.8
31 Agosto 2026 00:15 tempo osservato: Sereno Sereno 29 83 1014 vento: Nord S/SE 13
30 Agosto 2026 23:55 tempo osservato: Sereno Sereno 29 83 1014 vento: Nord SE 13
30 Agosto 2026 23:35 tempo osservato: Sereno Sereno 29 83 1014 vento: Nord SE 14.8
30 Agosto 2026 23:15 tempo osservato: Sereno Sereno 29 83 1014 vento: Nord SE 16.7
30 Agosto 2026 22:55 tempo osservato: Sereno Sereno 29 83 1014 vento: Nord SE 20.3
30 Agosto 2026 22:35 tempo osservato: Sereno Sereno 29 83 1013 vento: Nord SE 16.7
30 Agosto 2026 22:15 tempo osservato: Sereno Sereno 29 79 1013 vento: Nord SE 16.7
30 Agosto 2026 21:55 tempo osservato: Sereno Sereno 29 79 1013 vento: Nord E/SE 14.8
30 Agosto 2026 21:35 tempo osservato: Sereno Sereno 30 74 1012 vento: Nord E/SE 16.7
30 Agosto 2026 21:15 tempo osservato: Sereno Sereno 30 74 1012 vento: Nord E/SE 22.2
30 Agosto 2026 20:55 tempo osservato: Sereno Sereno 30 70 1012 vento: Nord E/SE 18.5
30 Agosto 2026 20:35 tempo osservato: Sereno Sereno 30 70 1012 vento: Nord E/SE 24
30 Agosto 2026 20:15 tempo osservato: Sereno Sereno 31 66 1012 vento: Nord SE 16.7
30 Agosto 2026 19:55 tempo osservato: Sereno Sereno 31 66 1011 vento: Nord E/SE 18.5
30 Agosto 2026 19:35 tempo osservato: Sereno Sereno 32 62 1011 vento: Nord SE 24
30 Agosto 2026 19:15 tempo osservato: Sereno Sereno 33 59 1011 vento: Nord E/SE 25.9
30 Agosto 2026 18:55 tempo osservato: Sereno Sereno 33 59 1011 vento: Nord SE 25.9
30 Agosto 2026 18:35 tempo osservato: Sereno Sereno 33 55 1011 vento: Nord E/SE 20.3
30 Agosto 2026 18:15 tempo osservato: Sereno Sereno 34 52 1011 vento: Nord E/SE 20.3
30 Agosto 2026 17:55 tempo osservato: Sereno Sereno 35 53 1011 vento: Nord E/SE 22.2
30 Agosto 2026 17:35 tempo osservato: Sereno Sereno 36 50 1011 vento: Nord E/SE 25.9
30 Agosto 2026 17:15 tempo osservato: Sereno Sereno 36 50 1010 vento: Nord E/SE 22.2
30 Agosto 2026 16:55 tempo osservato: Sereno Sereno 36 47 1010 vento: Nord E/SE 25.9
30 Agosto 2026 16:35 tempo osservato: Sereno Sereno 36 50 1011 vento: Nord E/SE 24
30 Agosto 2026 16:15 tempo osservato: Sereno Sereno 37 44 1011 vento: Nord E/SE 31.5
30 Agosto 2026 15:55 tempo osservato: Sereno Sereno 37 44 1011 vento: Nord E/SE 29.6
30 Agosto 2026 15:35 tempo osservato: Sereno Sereno 39 31 1011 vento: Nord E 18.5
30 Agosto 2026 15:15 tempo osservato: Poco Nuvoloso Poco Nuvoloso 39 31 1011 vento: Nord E/SE 14.8
30 Agosto 2026 14:55 tempo osservato: Poco Nuvoloso Poco Nuvoloso 38 33 1012 vento: Nord SE 13
30 Agosto 2026 14:35 tempo osservato: Poco Nuvoloso Poco Nuvoloso 39 31 1012 vento: Nord N 9.3
30 Agosto 2026 14:15 tempo osservato: Sereno Sereno 38 33 1013 vento: Nord S/SE 16.7
30 Agosto 2026 13:55 tempo osservato: Nuvoloso Nuvoloso 38 33 1013 vento: Nord S/SE 20.3
30 Agosto 2026 13:35 tempo osservato: Sereno Sereno 38 35 1013 vento: Nord SE 18.5
30 Agosto 2026 13:15 tempo osservato: Poco Nuvoloso Poco Nuvoloso 37 37 1014 vento: Nord S/SO 13
30 Agosto 2026 12:55 tempo osservato: Poco Nuvoloso Poco Nuvoloso 37 39 1014 vento: Nord S/SE 16.7
30 Agosto 2026 12:35 tempo osservato: Poco Nuvoloso Poco Nuvoloso 36 44 1015 vento: Nord N 9.3
30 Agosto 2026 12:15 tempo osservato: Sereno Sereno 36 44 1015 vento: Nord SE 16.7
30 Agosto 2026 11:55 tempo osservato: Sereno Sereno 36 44 1015 vento: Nord S 14.8
30 Agosto 2026 11:35 tempo osservato: Sereno Sereno 35 47 1015 vento: Nord S 16.7
30 Agosto 2026 11:15 tempo osservato: Sereno Sereno 34 52 1015 vento: Nord SE 16.7
30 Agosto 2026 10:55 tempo osservato: Sereno Sereno 33 55 1015 vento: Nord S/SE 14.8
30 Agosto 2026 10:35 tempo osservato: Sereno Sereno 33 59 1015 vento: Nord S/SE 16.7
30 Agosto 2026 10:15 tempo osservato: Sereno Sereno 32 66 1015 vento: Nord S/SE 16.7
30 Agosto 2026 09:55 tempo osservato: Sereno Sereno 31 70 1015 vento: Nord SE 16.7
30 Agosto 2026 09:35 tempo osservato: Sereno Sereno 30 79 1015 vento: Nord S/SE 14.8
30 Agosto 2026 09:15 tempo osservato: Sereno Sereno 30 79 1015 vento: Nord SE 11.1
30 Agosto 2026 08:55 tempo osservato: Sereno Sereno 28 88 1015 vento: Nord SE 11.1
30 Agosto 2026 08:35 tempo osservato: Sereno Sereno 27 94 1015 vento: Nord SE 9.3
30 Agosto 2026 08:15 tempo osservato: Sereno Sereno 26 100 1015 vento: Nord SE 9.3
30 Agosto 2026 07:55 tempo osservato: Sereno Sereno 26 94 1015 vento: Nord E/SE 7.4
30 Agosto 2026 07:35 tempo osservato: Sereno Sereno 25 100 1014 vento: Nord E/SE 7.4
30 Agosto 2026 07:15 tempo osservato: Sereno Sereno 25 100 1014 vento: Nord SE 9.3
30 Agosto 2026 06:55 tempo osservato: Sereno Sereno 25 100 1014 vento: Nord N 5.5
30 Agosto 2026 06:35 tempo osservato: Sereno Sereno 25 100 1014 vento: Nord SE 7.4
30 Agosto 2026 06:15 tempo osservato: Sereno Sereno 25 100 1014 vento: Nord E 7.4
30 Agosto 2026 05:55 tempo osservato: Sereno Sereno 25 94 1014 vento: Nord E/NE 9.3
30 Agosto 2026 05:35 tempo osservato: Sereno Sereno 25 94 1014 vento: Nord E 7.4
30 Agosto 2026 05:15 tempo osservato: Sereno Sereno 25 100 1014 vento: Nord N 5.5
30 Agosto 2026 04:55 tempo osservato: Sereno Sereno 25 100 1014 vento: Nord N 5.5
30 Agosto 2026 04:35 tempo osservato: Sereno Sereno 26 94 1014 vento: Nord N 5.5
30 Agosto 2026 04:15 tempo osservato: Sereno Sereno 26 94 1014 vento: Nord E/SE 7.4
30 Agosto 2026 03:55 tempo osservato: Sereno Sereno 26 94 1014 vento: Nord E/SE 7.4
30 Agosto 2026 03:35 tempo osservato: Sereno Sereno 26 94 1014 vento: Nord N 5.5
30 Agosto 2026 03:15 tempo osservato: Sereno Sereno 26 94 1014 vento: Nord N 5.5
30 Agosto 2026 02:55 tempo osservato: Sereno Sereno 26 94 1015 vento: Nord N 5.5
30 Agosto 2026 02:35 tempo osservato: Sereno Sereno 26 94 1015 vento: Nord N 5.5
30 Agosto 2026 02:15 tempo osservato: Sereno Sereno 26 94 1015 vento: Nord E 7.4
30 Agosto 2026 01:55 tempo osservato: Sereno Sereno 27 88 1015 vento: Nord N 5.5
30 Agosto 2026 01:35 tempo osservato: Sereno Sereno 27 88 1015 vento: Nord SE 7.4